Broome, Australia

11:31 PM AWST on July 23, 2018 (GMT +0800)
Broome International

Weather History for YBRM - April, 2018

Change the Weather History Date:

Tuesday, April 17, 2018

  Actual Average Record
Temperature  
Mean Temperature 86 °F -  
Max Temperature 95 °F 91 °F - ()
Min Temperature 78 °F 68 °F - ()
Cooling Degree Days 22    
Growing Degree Days 36 (Base 50)    
Moisture  
Dew Point 78 °F    
Average Humidity 74    
Maximum Humidity 94    
Minimum Humidity 40    
Precipitation  
Precipitation 0.00 in 0.03 in - ()
Sea Level Pressure  
Sea Level Pressure 29.86 in    
Wind  
Wind Speed 5 mph ()    
Max Wind Speed 14 mph    
Max Gust Speed -    
Visibility 6.2 miles    
Events      
T = Trace of Precipitation, MM = Missing Value Source: Averaged Metar Reports

Daily Weather History Graph

Daily Weather History Graph

Search for Another Location

Airport or City:

Astronomy

Apr. 17, 2018 Rise Set
Actual Time 6:00 AM AWST 5:40 PM AWST
Civil Twilight 5:38 AM AWST 6:02 PM AWST
Nautical Twilight 5:13 AM AWST 6:28 PM AWST
Astronomical Twilight 4:47 AM AWST 6:53 PM AWST
Moon 6:54 AM AWST (4/17) 6:50 PM AWST (4/17)
Length of Visible Light 12h 23m
Length of Day
11h 39m
New Moon, 1% of the Moon is Illuminated
Apr 17
New Moon
Apr 23
First Quarter
Apr 30
Full
May 8
Last Quarter
May 15
New

Hourly Weather History & Observations

Time (AWST) Temp. Heat Index Dew Point Humidity Pressure Visibility Wind Dir Wind Speed Gust Speed Precip Events Conditions
12:00 AM 85 °F - 77 °F 72% 29.87 in - WNW 4.6 mph - -   Clear
12:00 AM 86.0 °F 96.9 °F 77.0 °F 74% 29.86 in 6.2 mi WNW 4.6 mph - N/A   Unknown
12:30 AM 86.0 °F 96.9 °F 77.0 °F 74% 29.86 in 6.2 mi West 4.6 mph - N/A   Unknown
1:00 AM 86.0 °F 96.9 °F 77.0 °F 74% 29.86 in 6.2 mi WSW 6.9 mph - N/A   Mostly Cloudy
1:30 AM 86.0 °F 96.9 °F 77.0 °F 74% 29.86 in 6.2 mi WSW 6.9 mph - N/A   Unknown
2:00 AM 85 °F - 77 °F 72% 29.85 in - WSW 4.6 mph - -  
2:00 AM 86.0 °F 96.9 °F 77.0 °F 74% 29.83 in 6.2 mi WSW 4.6 mph - N/A   Unknown
2:30 AM 84.2 °F 96.1 °F 78.8 °F 84% 29.83 in 6.2 mi SW 4.6 mph - N/A   Unknown
3:00 AM 84 °F - 78 °F 78% 29.84 in - WSW 4.6 mph - -   Clear
3:00 AM 84.2 °F 96.1 °F 78.8 °F 84% 29.83 in 6.2 mi SW 4.6 mph - N/A   Unknown
4:00 AM 84.2 °F 96.1 °F 78.8 °F 84% 29.83 in 6.2 mi SW 2.3 mph - N/A   Unknown
4:30 AM 82.4 °F 92.4 °F 78.8 °F 89% 29.83 in 6.2 mi Calm Calm - N/A   Unknown
4:57 AM 80.6 °F 88.1 °F 78.8 °F 94% 29.83 in 6.2 mi South 2.3 mph - N/A   Mostly Cloudy
5:00 AM 81 °F - 78 °F 89% 29.85 in - South 1.2 mph - -  
5:00 AM 80.6 °F 88.1 °F 78.8 °F 94% 29.83 in 6.2 mi South 1.2 mph - N/A   Mostly Cloudy
5:11 AM 84.2 °F 98.3 °F 80.6 °F 89% 29.86 in 6.2 mi South 4.6 mph - N/A   Mostly Cloudy
5:29 AM 82.4 °F 94.0 °F 80.6 °F 94% 29.86 in 6.2 mi South 5.8 mph - N/A   Scattered Clouds
5:30 AM 82.4 °F 94.0 °F 80.6 °F 94% 29.86 in 6.2 mi SSE 5.8 mph - N/A   Scattered Clouds
6:00 AM 80 °F - 78 °F 90% 29.87 in - East 2.3 mph - -   Clear
6:00 AM 80.6 °F 87.1 °F 77.0 °F 89% 29.86 in 6.2 mi East 2.3 mph - N/A   Unknown
6:30 AM 78.8 °F - 77.0 °F 94% 29.86 in 6.2 mi NNE 3.5 mph - N/A   Unknown
7:00 AM 80.6 °F 88.1 °F 78.8 °F 94% 29.89 in 6.2 mi NNE 3.5 mph - N/A   Partly Cloudy
8:00 AM 86 °F - 80 °F 78% 29.91 in - SE 5.8 mph - -  
8:00 AM 86.0 °F 101.9 °F 80.6 °F 84% 29.89 in 6.2 mi SE 5.8 mph - N/A   Scattered Clouds
9:00 AM 89 °F - 79 °F 67% 29.91 in - WSW 3.5 mph - -   Clear
9:00 AM 89.6 °F 104.7 °F 78.8 °F 70% 29.92 in 6.2 mi WSW 3.5 mph - N/A   Partly Cloudy
9:30 AM 91.4 °F 107.2 °F 78.8 °F 66% 29.89 in - East 3.5 mph - N/A   Clear
10:00 AM 89.6 °F 102.2 °F 77.0 °F 66% 29.89 in - ESE 5.8 mph - N/A   Clear
10:30 AM 91.4 °F 105.1 °F 77.0 °F 63% 29.89 in 6.2 mi ESE 5.8 mph - N/A   Unknown
11:00 AM 93 °F - 73 °F 43% 29.89 in - South 5.8 mph - -  
11:00 AM 93.2 °F 102.4 °F 73.4 °F 52% 29.89 in 6.2 mi South 5.8 mph - N/A   Partly Cloudy
11:30 AM 93.2 °F 100.5 °F 71.6 °F 49% 29.86 in 6.2 mi South 8.1 mph - N/A   Partly Cloudy
12:00 PM 94 °F - 72 °F 40% 29.87 in - South 6.9 mph - -   Clear
12:00 PM 93.2 °F 102.4 °F 73.4 °F 52% 29.86 in 6.2 mi South 6.9 mph - N/A   Scattered Clouds
12:30 PM 93.2 °F 105.0 °F 75.2 °F 56% 29.86 in 6.2 mi West 12.7 mph - N/A   Scattered Clouds
1:00 PM 93.2 °F 105.0 °F 75.2 °F 56% 29.83 in 6.2 mi West 12.7 mph - N/A   Scattered Clouds
1:30 PM 91.4 °F 105.1 °F 77.0 °F 63% 29.83 in 6.2 mi West 12.7 mph - N/A   Scattered Clouds
2:00 PM 90 °F - 79 °F 63% 29.83 in - West 12.7 mph - -  
2:00 PM 91.4 °F 107.2 °F 78.8 °F 66% 29.83 in 6.2 mi West 12.7 mph - N/A   Scattered Clouds
2:30 PM 91.4 °F 105.1 °F 77.0 °F 63% 29.83 in 6.2 mi WNW 13.8 mph - N/A   Scattered Clouds
3:00 PM 90 °F - 76 °F 56% 29.83 in - WNW 12.7 mph - -   Clear
3:00 PM 89.6 °F 102.2 °F 77.0 °F 66% 29.83 in 6.2 mi WNW 12.7 mph - N/A   Scattered Clouds
3:30 PM 89.6 °F 102.2 °F 77.0 °F 66% 29.83 in 6.2 mi WNW 11.5 mph - N/A   Scattered Clouds
4:00 PM 89.6 °F 102.2 °F 77.0 °F 66% 29.83 in 6.2 mi West 10.4 mph - N/A   Mostly Cloudy
4:30 PM 87.8 °F 102.5 °F 78.8 °F 75% 29.83 in 6.2 mi West 10.4 mph - N/A   Unknown
5:00 PM 88 °F - 78 °F 65% 29.84 in - WNW 9.2 mph - -  
5:00 PM 87.8 °F 102.5 °F 78.8 °F 75% 29.83 in 6.2 mi WNW 9.2 mph - N/A   Unknown
5:30 PM 87.8 °F 99.7 °F 77.0 °F 70% 29.83 in 6.2 mi WNW 6.9 mph - N/A   Unknown
6:00 PM 87 °F - 78 °F 69% 29.85 in - WNW 8.1 mph - -   Clear
6:00 PM 87.8 °F 102.5 °F 78.8 °F 75% 29.83 in 6.2 mi WNW 8.1 mph - N/A   Unknown
7:00 PM 86.0 °F 99.3 °F 78.8 °F 79% 29.86 in 6.2 mi NNW 5.8 mph - N/A   Unknown
7:30 PM 86.0 °F 99.3 °F 78.8 °F 79% 29.89 in 6.2 mi NW 4.6 mph - N/A   Unknown
8:00 PM 86 °F - 80 °F 76% 29.90 in - NW 4.6 mph - -  
8:00 PM 86.0 °F 99.3 °F 78.8 °F 79% 29.89 in 6.2 mi NW 4.6 mph - N/A   Unknown
8:30 PM 86.0 °F 101.9 °F 80.6 °F 84% 29.89 in 6.2 mi WNW 4.6 mph - N/A   Unknown
9:00 PM 85 °F - 78 °F 75% 29.91 in - NW 4.6 mph - -   Clear
9:00 PM 84.2 °F 96.1 °F 78.8 °F 84% 29.89 in 6.2 mi NW 4.6 mph - N/A   Unknown
9:30 PM 84.2 °F 96.1 °F 78.8 °F 84% 29.89 in 6.2 mi WNW 5.8 mph - N/A   Unknown
10:00 PM 84.2 °F 96.1 °F 78.8 °F 84% 29.89 in 6.2 mi WNW 6.9 mph - N/A   Unknown
10:30 PM 86.0 °F 99.3 °F 78.8 °F 79% 29.89 in 6.2 mi WNW 8.1 mph - N/A   Unknown
11:00 PM 85 °F - 79 °F 78% 29.89 in - WNW 5.8 mph - -  
11:00 PM 84.2 °F 96.1 °F 78.8 °F 84% 29.89 in 6.2 mi WNW 5.8 mph - N/A   Unknown
11:30 PM 84.2 °F 98.3 °F 80.6 °F 89% 29.89 in 6.2 mi West 5.8 mph - N/A   Unknown